Location: Davidschlag
(48.4333°N, 14.2833°E)
Time: 20:21:47
(UTC+00:00)

Ariane Rocket - Pass Details

Date: 27 February 2020
Orbit: 759 x 771 km, 98.7° (Epoch: 03 April)

Event Time Altitude Azimuth Distance (km) Brightness Sun altitude
Rises 17:46:14 0° 150° (SSE) 3,233 5.9 -11.3°
Reaches altitude 10° 17:48:34 10° 146° (SE) 2,311 5.2 -11.7°
Maximum altitude 17:53:32 55° 69° (ENE) 922 3.1 -12.5°
Drops below altitude 10° 17:58:32 10° 353° (N) 2,325 5.6 -13.3°
Sets 18:00:53 0° 349° (N) 3,256 6.4 -13.7°
